This demonstration page uses our WeatherBlox Daily Observations layout. Learn more.

Left ArrowRight Arrow

Hourly Observations for February 19, 2017

Temp ( °F °C ) Dew Point ( °F °C ) Humidity (%) Winds ( mph kmh ) Pressure ( in mb ) Visibility ( mi km ) Precip ( " mm )
12:51 am 00:51 Mostly Cloudy 46 7.8 36 2.2 68 68 ESE 12 19 29.73 1007 10 16 N/A
1:51 am 01:51 Partly Cloudy 45 7.2 36 2.2 71 71 E 7 11 29.74 1007 10 16 N/A
2:51 am 02:51 Cloudy 46 7.8 36 2.2 68 68 E 10 17 29.74 1007 10 16 N/A
3:51 am 03:51 Cloudy 47 8.3 35 1.7 63 63 SE 12 19 29.77 1008 10 16 N/A
4:51 am 04:51 Cloudy 45 7.2 37 2.8 74 74 E 6 9 29.78 1009 10 16 N/A
5:51 am 05:51 Cloudy 46 7.8 36 2.2 68 68 SE 10 17 29.79 1009 10 16 N/A
6:51 am 06:51 Mostly Clear 44 6.7 36 2.2 73 73 E 9 15 29.81 1009 10 16 N/A
7:51 am 07:51 Partly Cloudy 46 7.8 37 2.8 71 71 E 9 15 29.84 1011 10 16 N/A
8:51 am 08:51 Sunny 47 8.3 37 2.8 69 69 SSE 6 9 29.87 1011 10 16 N/A
9:51 am 09:51 Sunny 51 10.6 37 2.8 59 59 VRB 5 7 29.88 1012 10 16 N/A
10:51 am 10:51 Mostly Sunny 56 13.3 36 2.2 47 47 ESE 9 15 29.87 1011 10 16 N/A
11:51 am 11:51 Cloudy 57 13.9 35 1.7 44 44 VRB 3 6 29.86 1011 10 16 N/A
12:51 pm 12:51 Cloudy 57 13.9 35 1.7 44 44 VRB 3 6 29.85 1011 10 16 N/A
1:51 pm 13:51 Cloudy 58 14.4 36 2.2 44 44 NW 7 11 29.85 1011 10 16 N/A
2:51 pm 14:51 Partly Cloudy 59 15 37 2.8 44 44 NW 14 22 29.85 1011 10 16 N/A
3:51 pm 15:51 Mostly Cloudy 58 14.4 38 3.3 48 48 W 13 20 29.87 1011 10 16 N/A
4:51 pm 16:51 Cloudy 57 13.9 38 3.3 49 49 NW 9 15 29.89 1012 10 16 N/A
5:51 pm 17:51 Cloudy with Light Rain 53 11.7 41 5 64 64 WNW 10 17 29.92 1013 10 16 N/A
6:51 pm 18:51 Mostly Cloudy 52 11.1 40 4.4 64 64 WNW 8 13 29.96 1014 10 16 N/A
7:51 pm 19:51 Cloudy 52 11.1 40 4.4 64 64 NW 12 19 29.97 1015 10 16 N/A
8:51 pm 20:51 Cloudy 51 10.6 40 4.4 66 66 NW 12 19 30.01 1016 10 16 N/A
9:51 pm 21:51 Cloudy 50 10 41 5 71 71 NNW 13 20 30.03 1017 10 16 N/A
10:51 pm 22:51 Cloudy 50 10 41 5 71 71 NW 7 11 30.04 1017 10 16 N/A
11:51 pm 23:51 Cloudy 49 9.4 41 5 74 74 W 6 9 30.05 1018 10 16 N/A

Powered by AerisWeather